• Join FlightAware (Why Join?)
  • Login
  • US Flag 
05:33PM EST


 

Airport Tracker/Info


-or-


 

Live Flight TrackerFlight Track Log ✈ SWA2068 ✈ 20-Jul-2013 ✈ KBNA - KBWI

Flight Track Log - Related Links

Times and Time Zones

All times are in EDT time to prevent confusion due to time zone crossing. See the SWA2068 flight status page for this flight to view local times or setup timezone preferences in your user account.

Time Position Orientation Groundspeed Altitude Reporting Facility
EDT Latitude Longitude Course Direction KTS MPH feet Rate Location/Type
07:16AM 36.1333 -86.7000 302° West 162 186 1,400  Level Nashville TRACON
07:16AM 36.1500 -86.7333 302° West 163 188 2,800 2,280 Climbing Nashville TRACON
07:17AM 36.1167 -86.7667 219° Southwest 219 252 5,300 2,340 Climbing Nashville TRACON
07:19AM 36.0764 -86.6667 116° Southeast 249 287 9,700 2,280 Climbing Memphis Center
07:20AM 36.1003 -86.5578 75° East 285 328 12,000 2,700 Climbing Memphis Center
07:21AM 36.1258 -86.4358 75° East 343 395 15,100 3,000 Climbing Memphis Center
07:22AM 36.1511 -86.3136 76° East 363 418 18,000 2,700 Climbing Memphis Center
07:23AM 36.1800 -86.1786 75° East 385 443 20,600 2,280 Climbing Memphis Center
07:26AM 36.2894 -85.8700 66° East 434 499 25,900 2,100 Climbing Indianapolis Center
07:27AM 36.3506 -85.7369 60° Northeast 439 505 28,000 1,860 Climbing Indianapolis Center
07:28AM 36.4164 -85.6025 59° Northeast 449 517 29,800 1,620 Climbing Indianapolis Center
07:29AM 36.4808 -85.4639 60° Northeast 460 529 31,300 1,740 Climbing Indianapolis Center
07:30AM 36.5478 -85.3244 59° Northeast 465 535 33,400 1,860 Climbing Indianapolis Center
07:31AM 36.6131 -85.1836 60° Northeast 468 539 35,100 1,620 Climbing Indianapolis Center
07:32AM 36.6589 -85.0347 69° East 461 531 36,700 1,620 Climbing Indianapolis Center
07:33AM 36.7044 -84.8858 69° East 459 528 38,500 1,080 Climbing Indianapolis Center
07:34AM 36.7575 -84.7133 69° East 445 512 39,000 240 Climbing Indianapolis Center
07:35AM 36.8017 -84.5689 69° East 445 512 39,000  Level Indianapolis Center
07:36AM 36.8425 -84.4353 69° East 446 513 39,000  Level Indianapolis Center
07:37AM 36.8853 -84.2900 70° East 445 512 39,000  Level Indianapolis Center
07:38AM 36.9278 -84.1450 70° East 444 511 39,000  Level Indianapolis Center
07:39AM 36.9717 -83.9994 69° East 448 516 39,000  Level Indianapolis Center
07:40AM 37.0231 -83.8297 69° East 446 513 39,000  Level Indianapolis Center
07:41AM 37.0653 -83.6856 70° East 442 509 39,000  Level Indianapolis Center
07:42AM 37.1083 -83.5392 70° East 446 513 39,000  Level Indianapolis Center
07:43AM 37.1511 -83.3939 70° East 443 510 39,000  Level Indianapolis Center
07:44AM 37.1933 -83.2456 70° East 447 514 39,000  Level Indianapolis Center
07:45AM 37.2364 -83.0975 70° East 447 514 39,000  Level Indianapolis Center
07:46AM 37.2797 -82.9481 70° East 450 518 39,000  Level Indianapolis Center
07:47AM 37.3225 -82.7981 70° East 452 520 39,000  Level Indianapolis Center
07:48AM 37.3644 -82.6481 71° East 453 521 39,000  Level Indianapolis Center
07:49AM 37.4064 -82.4978 71° East 453 521 39,000  Level Indianapolis Center
07:50AM 37.4486 -82.3489 70° East 451 519 39,000  Level Indianapolis Center
07:51AM 37.4908 -82.1992 70° East 452 520 39,000  Level Indianapolis Center
07:52AM 37.5311 -82.0494 71° East 450 518 39,000  Level Indianapolis Center
07:53AM 37.5722 -81.9006 71° East 449 517 39,000  Level Indianapolis Center
07:54AM 37.6133 -81.7508 71° East 452 520 39,000  Level Indianapolis Center
07:55AM 37.6592 -81.5753 72° East 451 519 39,000  Level Indianapolis Center
07:56AM 37.6972 -81.4367 71° East 453 521 39,000  Level Indianapolis Center
07:57AM 37.7369 -81.2894 71° East 455 524 39,000  Level Indianapolis Center
07:58AM 37.7761 -81.1414 71° East 455 524 39,000  Level Indianapolis Center
07:59AM 37.7997 -80.9561 81° East 457 526 39,000  Level Indianapolis Center
08:00AM 37.8161 -80.8108 82° East 459 528 39,000  Level Indianapolis Center
08:01AM 37.8336 -80.6519 82° East 458 527 39,000  Level Indianapolis Center
08:02AM 37.8517 -80.4944 82° East 455 524 39,000  Level Indianapolis Center
08:03AM 37.8925 -80.3150 74° East 447 514 39,000 -540 Level Indianapolis Center
08:04AM 37.9375 -80.1711 68° East 450 518 38,000 -1,020 Descending Indianapolis Center
08:05AM 37.9842 -80.0244 68° East 456 525 37,000 -540 Descending Indianapolis Center
08:06AM 38.0292 -79.8775 69° East 458 527 37,000  Level Indianapolis Center
08:07AM 38.0753 -79.7317 68° East 456 525 37,000  Level Indianapolis Center
08:08AM 38.1306 -79.5572 68° East 456 525 37,000 -1,020 Level Indianapolis Center
08:09AM 38.1736 -79.4117 69° East 452 520 35,000 -2,220 Descending Indianapolis Center
08:11AM 38.2303 -79.2475 66° East 442 509 32,300 -2,280 Descending Washington Center
08:12AM 38.2761 -79.1069 67° East 442 509 30,300 -1,920 Descending Washington Center
08:13AM 38.3178 -78.9658 69° East 435 501 28,500 -1,620 Descending Washington Center
08:14AM 38.3569 -78.8247 70° East 425 489 27,200 -1,200 Descending Washington Center
08:15AM 38.4006 -78.6783 69° East 425 489 26,200 -1,020 Descending Washington Center
08:16AM 38.4436 -78.5369 69° East 425 489 25,200 -1,200 Descending Washington Center
08:16AM 38.4867 -78.3928 69° East 425 489 23,900 -2,040 Descending Washington Center
08:18AM 38.5275 -78.2508 70° East 425 489 21,200 -1,920 Descending Washington Center
08:19AM 38.5681 -78.1117 70° East 425 489 20,000 -1,140 Descending Washington Center
08:20AM 38.6061 -77.9800 70° East 414 476 19,000 -540 Descending Washington Center
08:21AM 38.6400 -77.8403 73° East 408 470 19,000  Level Washington Center
08:22AM 38.6511 -77.6969 84° East 401 461 19,000 -240 Level Washington Center
08:23AM 38.6578 -77.5536 87° East 396 456 18,600 -1,260 Descending Washington Center
08:24AM 38.6661 -77.4156 86° East 396 456 16,500 -1,380 Descending Washington Center
08:25AM 38.6744 -77.2775 86° East 391 450 15,900 -1,380 Descending Washington Center
08:26AM 38.6825 -77.1422 86° East 385 443 13,900 -2,040 Descending Washington Center
08:27AM 38.6903 -77.0119 86° East 373 429 11,900 -1,800 Descending Washington Center
08:28AM 38.6978 -76.8897 85° East 360 414 10,300 -1,320 Descending Washington Center
08:29AM 38.7033 -76.7728 86° East 345 397 9,300 -1,020 Descending Washington Center
08:30AM 38.7333 -76.6747 69° East 297 342 8,300 -1,320 Descending Washington Center
08:31AM 38.7833 -76.5667 59° Northeast 299 344 6,600 -1,200 Descending Potomac TRACON
08:32AM 38.8333 -76.5167 38° Northeast 285 328 6,000 -900 Descending Potomac TRACON
08:33AM 38.9167 -76.5167 360° North 278 320 4,900 -1,200 Descending Potomac TRACON
08:34AM 38.9833 -76.5333 349° North 270 311 3,700 -1,200 Descending Potomac TRACON
08:35AM 39.0667 -76.5333 360° North 257 296 2,500 -900 Descending Potomac TRACON
08:35AM 39.1333 -76.5333 360° North 238 274 2,000 -480 Descending Potomac TRACON
08:36AM 39.1667 -76.5667 322° Northwest 155 178 1,600 -600 Descending Potomac TRACON
08:37AM 39.1667 -76.6000 270° West 126 145 900 -720 Descending Potomac TRACON
08:39AM 39.1667 -76.6667 339° North  Level FlightAware Approximate
08:46AM 39.1754 -76.6683 339° North  Level Estimated
08:47AM 39.1754 -76.6683 339° North  Level Estimated
08:48AM 39.1754 -76.6683 339° North  Level Estimated
08:49AM 39.1754 -76.6683 339° North  Level Estimated
08:50AM 39.1754 -76.6683 339° North  Level Estimated